www.pogodaiklimat.ru

Погода и климат >> Архив погоды >> Боливия >> Сан Хосе де Чикитос


ПОГОДА в Сан Хосе де Чикитосе

  • Прогноз погоды в Сан Хосе де Чикитосе
  • Монитор погоды в Сан Хосе де Чикитосе

АРХИВ ПОГОДЫ в Сан Хосе де Чикитосе

Время (UTC), дата Ветер
(напр.,м/с)
 
Видим.   Явления Облачность Т
(С)
Тd
(С)
f
(%)
Тe
(С)
Тes
(С)
Комфортность P
(гПа)
Po
(гПа)
Тmin
(С)
Tmax
(С)
R
(мм)
R24
(мм)
S
(см)
12 15.08 штиль 0 8000 м дым ясно +14.5 +4.2 50 +14 +19 1021.6 989.2 +10.8
15 15.08 Ю 3 6000 м дым ясно +28.0 +7.5 27 +27 +40 жарко 1021.4 988.5
18 15.08 штиль 0 6000 м дым ясно +33.5 +11.6 26 +33 +50 жарко 1017.6 984.5
21 15.08 штиль 0 6000 м дым ясно +33.7 +12.7 28 +34 +35 очень
жарко
1015.5 983.0 +35.5
12 16.08 штиль 0 2000 м дым ясно +17.2 +10.7 66 +17 +22 1017.8 984.0 +13.3
15 16.08 штиль 0 2000 м дым ясно +30.7 +12.0 32 +31 +52 опасность
солнечного
удара
1017.9 985.0
18 16.08 С 8 3000 м дым ясно +35.7 +13.6 27 +36 +39 очень
жарко
1014.1 981.5
21 16.08 С 6 4000 м дым ясно +35.3 +12.7 26 +36 +36 очень
жарко
1012.5 980.0 +37.1
12 17.08 штиль 0 5000 м дым ясно +22.5 +12.9 55 +25 +30 комфорт 1013.5 980.7 +20.2
15 17.08 С 8 5000 м дым ясно +33.5 +14.9 33 +35 +39 душно 1013.9 981.0
18 17.08 С 9 5000 м дым ясно +36.0 +13.3 26 +36 +38 очень
жарко
1010.5 978.0
21 17.08 С 8 5000 м дым ясно +35.2 +13.0 26 +35 +36 очень
жарко
1008.6 976.4 +37.8
12 18.08 штиль 0 1500 м дым ясно +23.5 +16.8 66 +27 +32 душно 1015.8 982.7 +20.1
15 18.08 С 4 5000 м дым ясно +32.0 +15.9 38 +35 +45 очень
душно
1016.8 983.7
18 18.08 С 5 8000 м дым ясно +34.7 +15.6 32 +37 +43 очень
душно
1015.2 982.0
12 19.08 В 6 8000 м дым 8/0 2000 м
[Ac lent]
+21.4 +13.4 60 +24 +24 комфорт 1020.7 988.0 +20.1
15 19.08 Ю 6 9000 м ясно +26.8 +9.7 34 +27 +33 жарко 1022.6 988.6
18 19.08 Ю 3 20 км дым ясно +30.1 +10.7 30 +30 +41 жарко 1018.3 985.2
21 19.08 Ю 3 20 км дым ясно +29.8 +10.6 30 +30 +31 жарко 1016.2 983.4 +31.0
12 20.08 Ю 3 9000 м дым 8/8 600 м
[Sc]
+19.7 +10.3 55 +21 +22 комфорт 1021.9 988.9 +18.2
15 20.08 Ю 3 9000 м дым 9/9 700 м
[Sc]
+24.2 +11.1 44 +26 +27 жарко 1023.1 990.0
18 20.08 Ю 3 15 км дым ясно +30.2 +12.8 34 +31 +43 жарко 1020.2 987.5
21 20.08 Ю 3 15 км дым ясно +30.2 +13.0 35 +31 +32 жарко 1018.6 986.5 +32.1
12 21.08 Ю 3 9000 м дым ясно +21.5 +9.1 45 +23 +26 комфорт 1021.9 989.0 +18.7
15 21.08 Ю 3 9000 м дым ясно +29.0 +10.6 32 +29 +42 жарко 1022.8 990.1
18 21.08 штиль 0 7000 м дым ясно +33.8 +12.8 28 +34 +51 опасность
солнечного
удара
1018.5 985.7
21 21.08 штиль 0 7000 м дым ясно +34.0 +15.6 33 +36 +37 душно 1016.8 984.4 +34.1

 

Местоположение метеостанции Сан Хосе де Чикитос (Боливия): широта -17.80 долгота -60.73 высота над уровнем моря 284 м.

В архиве по умолчанию представлена погода в Сан Хосе де Чикитосе за последнюю неделю. Архивные данные за месяц целиком и за предыдущие месяцы, начиная с января 2011 года, Вы можете получить, выбрав интересующий диапазон дат из раскрывающегося списка и нажав кнопку "Ввод!".


*Определитесь, кто Вы:
робот инопланетянин человек

Внимание! Время в таблицах - всемирное. Для получения местного времени необходимо прибавить поправку, которая равна -4 ч.

Смотрите также архив погоды в соседних городах и на ближайших метеорологических станциях:

Погода в Роборе (Боливия) (117 км)
Погода в Сан-Игнасио (Боливия) (160 км)
Погода в Консепсьоне (Боливия) (229 км)
Погода в Сан-Хавьере (Боливия) (251 км)
Погода в Виру-Виру (Боливия) (255 км)
Погода в Санта-Крусе (Боливия) (259 км)
Погода в Сан-Матиасе (Боливия) (299 км)
Погода на Ферме Vila Bela da S Trind (Мату-Гросу, Бразилия) (317 км)
Погода в Понтис-и-Ласерде (Мату-Гросу, Бразилия) (320 км)
Погода в Пуэрто-Суаресе (Боливия) (335 км)

Пояснения к столбцам:

Ветер - указаны скорость ветра в м/с - средняя за 10 мин, порывы в срок и между сроками (в фигурных скобках) и направление, откуда дует ветер: С - северный, СВ - северо-восточный, В - восточный, ЮВ - юго-восточный, Ю - южный, ЮЗ - юго-западный, З - западный, СЗ - северо-западный.
Видимость - горизонтальная дальность видимости в метрах или километрах. При видимости от 1 до 10 км при отсутствии осадков обычно наблюдается дымка, при ухудшении видимости до 1 км и менее - туман. В сухую погоду видимость может ухудшаться дымом, пылью или мглою.
Явления - указаны атмосферные явления, наблюдавшиеся в срок или в последний час перед сроком; фигурными скобками обозначены явления, наблюдавшиеся между сроками (за 1-3 часа до срока); квадратными скобками обозначены град или гололедные отложения с указанием их диаметра в мм.
Облачность - указаны через наклонную черту общая и нижняя облачность в баллах и высота нижней границы облаков в метрах; квадратными скобками обозначены формы облаков: Ci - перистые, Cs - перисто-слоистые, Cc - перисто-кучевые, Ac - высококучевые, As - высокослоистые, Sc - слоисто-кучевые, Ns - слоисто-дождевые, Cu - кучевые, Cb - кучево-дождевые. Подробнее классификацию облаков см. в Атласе облаков (PDF).
T - Температура воздуха - температура, измеренная на высоте 2 м над землей.
Td - Температура точки росы - температура, при понижении до которой содержащийся в воздухе водяной пар достигнет насыщения.
f - Относительная влажность воздуха - влажноcть воздуха, измеренная на высоте 2 м над землей.
Te - Эффективная температура - температура, которую ощущает одетый по сезону человек в тени. Характеристика душности погоды. При расчете учитывается влияние влажности воздуха и скорости ветра на теплоощущения человека.
Tes - Эффективная температура на солнце - температура, которую ощущает человек, с поправкой на солнечный нагрев. Характеристика знойности погоды. Зависит от высоты солнца над горизонтом, облачности и скорости ветра. Ночью, в пасмурную погоду, а также при ветре 12 м/с и более поправка равна нулю.
P - Атмосферное давление - приведенное к уровню моря атмосферное давление.
Po - Атмосферное давление - измеренное на уровне метеостанции атмосферное давление.
Tmin - Минимальная температура - минимум температуры воздуха на высоте 2 м над землей.
Tmax - Максимальная температура - максимум температуры воздуха на высоте 2 м над землей.
R - Количество осадков - Количество выпавших осадков за период времени, мм. При наведении курсора мыши на число - период времени, за который выпало указанное количество осадков.
R24 - Количество осадков - Количество выпавших осадков за 24 часа, мм.
S - Снежный покров - Высота снежного покрова, см. При наведении курсора мыши на число - состояние снежного покрова и степень покрытия местности в баллах.